Waarnemingen

Advertentie
Mijn weer
Barcelona/Aeropuerto, Spanje (8181): temperatuur & dauwpunt: 19.02.2020 07:00:00 - 25.02.2020 07:00:00 (CET)Barcelona/Aeropuerto, Spanje (8181): windsnelheid: 19.02.2020 07:00:00 - 25.02.2020 07:00:00 (CET)Barcelona/Aeropuerto, Spanje (8181): windrichting: 19.02.2020 07:00:00 - 25.02.2020 07:00:00 (CET)Barcelona/Aeropuerto, Spanje (8181): luchtdruk: 19.02.2020 07:00:00 - 25.02.2020 07:00:00 (CET)Barcelona/Aeropuerto, Spanje (8181): zicht: 19.02.2020 07:00:00 - 25.02.2020 07:00:00 (CET)
Datum & Tijd tt [°C] td [°C] ff [km/u] ff [kn] dd ppp [hPa] vv [km]
25.02.2020 07:00:00 8,6 5,7 8 4 N 1016,5 10
25.02.2020 06:00:00 9,2 6,3 11 6 N 1016,5 10
25.02.2020 05:00:00 9,1 6,0 5 3 N 1016,6 10
25.02.2020 04:00:00 10,2 6,3 11 6 N 1017,0 15
25.02.2020 03:00:00 10,4 6,9 2 1 NW 1017,8 18
25.02.2020 02:00:00 10,9 5,3 4 2 N 1018,8 22
25.02.2020 01:00:00 11,1 6,1 8 4 NNO 1019,4 25
25.02.2020 00:00:00 11,5 5,6 5 3 NNW 1020,0 22
24.02.2020 23:00:00 12,3 8,9 9 5 WNW 1020,5 18
24.02.2020 22:00:00 12,9 9,6 15 8 W 1020,9 20
24.02.2020 21:00:00 13,9 11,4 15 8 WZW 1021,1 18
24.02.2020 20:00:00 15,0 9,1 24 13 WZW 1021,1 30
24.02.2020 19:00:00 15,9 4,6 22 12 WZW 1021,0 30
24.02.2020 18:00:00 16,1 7,9 22 12 WZW 1021,0 30
24.02.2020 17:00:00 16,5 11,4 26 14 ZW 1021,3 21
24.02.2020 16:00:00 18,4 7,2 24 13 WZW 1021,8 20
24.02.2020 15:00:00 17,6 9,5 34 18 WZW 1022,6 30
24.02.2020 14:00:00 16,7 12,6 26 14 WZW 1023,9 20
24.02.2020 13:00:00 16,8 11,1 22 12 WZW 1025,1 12
24.02.2020 12:00:00 16,3 10,6 16 9 ZW 1026,0 21
24.02.2020 11:00:00 15,8 9,8 9 5 ZW 1026,6 15
24.02.2020 10:00:00 13,4 7,6 8 4 N 1027,2 11
24.02.2020 09:00:00 10,5 6,8 15 8 N 1027,3 11
24.02.2020 08:00:00 9,0 6,3 15 8 N 1027,0 10
24.02.2020 07:00:00 9,2 6,5 15 8 N 1027,0 10
24.02.2020 06:00:00 10,1 6,8 18 10 N 1027,4 11
24.02.2020 05:00:00 10,3 6,8 18 10 N 1027,6 11
24.02.2020 04:00:00 10,1 6,6 11 6 N 1028,0 11
24.02.2020 03:00:00 10,5 6,6 13 7 N 1028,9 14
24.02.2020 02:00:00 11,0 6,7 11 6 NNW 1029,5 14
24.02.2020 01:00:00 11,5 6,8 11 6 N 1030,1 15
24.02.2020 00:00:00 12,4 8,5 4 2 NNW 1030,3 18
23.02.2020 23:00:00 12,5 11,1 8 4 W 1030,4 9
23.02.2020 22:00:00 13,3 11,4 13 7 WZW 1030,4 10
23.02.2020 21:00:00 13,8 11,8 21 11 WZW 1030,0 10
23.02.2020 20:00:00 14,1 11,6 18 10 WZW 1030,1 10
23.02.2020 19:00:00 14,4 10,7 22 12 WZW 1029,7 15
23.02.2020 18:00:00 16,7 8,6 24 13 WZW 1029,5 22
23.02.2020 17:00:00 17,4 9,2 28 15 WZW 1029,4 18
23.02.2020 16:00:00 17,5 9,6 29 16 WZW 1029,7 25
23.02.2020 15:00:00 16,8 10,3 29 16 WZW 1030,3 18
23.02.2020 14:00:00 16,6 11,5 24 13 ZW 1031,1 17
23.02.2020 13:00:00 16,2 11,2 24 13 WZW 1032,2 8
23.02.2020 12:00:00 16,3 9,9 21 11 WZW 1033,0 13
23.02.2020 11:00:00 15,3 10,3 11 6 W 1033,5 10
23.02.2020 10:00:00 12,2 8,1 9 5 N 1033,6 11
23.02.2020 09:00:00 9,6 6,9 15 8 N 1033,5 10
23.02.2020 08:00:00 8,3 6,1 16 9 N 1033,1 9
23.02.2020 07:00:00 8,3 6,4 13 7 N 1032,9 8
23.02.2020 06:00:00 8,6 6,7 13 7 N 1032,9 7
23.02.2020 05:00:00 9,0 7,1 11 6 N 1032,6 7
23.02.2020 04:00:00 9,7 7,6 15 8 N 1033,0 8
23.02.2020 03:00:00 9,8 8,2 13 7 N 1033,2 6
23.02.2020 02:00:00 9,7 8,6 13 7 N 1033,6 4,2
23.02.2020 01:00:00 8,5 7,3 5 3 WNW 1034,0 4,1
23.02.2020 00:00:00 9,5 8,1 2 1 NNW 1034,4 4,2
22.02.2020 23:00:00 10,3 8,9 9 5 N 1034,5 4,7
22.02.2020 22:00:00 11,1 9,7 8 4 NNO 1034,5 5
22.02.2020 21:00:00 12,0 10,2 5 3 N 1034,3 4,5
22.02.2020 20:00:00 13,5 11,5 9 5 OZO 1033,5 7
22.02.2020 19:00:00 13,9 11,1 8 4 OZO 1033,1 6
22.02.2020 18:00:00 14,8 11,0 9 5 O 1032,5 8
22.02.2020 17:00:00 15,6 10,8 5 3 OZO 1032,4 8
22.02.2020 16:00:00 15,5 11,3 13 7 ZO 1032,3 7
22.02.2020 15:00:00 16,0 10,5 24 13 O 1032,2 12
22.02.2020 14:00:00 16,2 11,1 18 10 O 1032,4 12
22.02.2020 13:00:00 15,7 11,1 18 10 O 1033,3 12
22.02.2020 12:00:00 15,5 10,5 18 10 O 1033,6 14
22.02.2020 11:00:00 14,2 8,7 11 6 N 1033,1 13
22.02.2020 10:00:00 11,5 6,6 15 8 N 1032,5 12
22.02.2020 09:00:00 8,9 5,4 18 10 N 1031,9 10
22.02.2020 08:00:00 7,5 4,6 18 10 NNO 1031,0 11
22.02.2020 07:00:00 7,9 4,8 22 12 N 1030,3 10
22.02.2020 06:00:00 8,2 5,1 18 10 N 1029,8 11
22.02.2020 05:00:00 8,8 5,4 18 10 N 1029,5 11
22.02.2020 04:00:00 9,3 5,5 18 10 N 1029,5 12
22.02.2020 03:00:00 9,1 5,5 13 7 N 1029,4 13
22.02.2020 02:00:00 9,2 5,6 13 7 N 1029,7 15
22.02.2020 01:00:00 9,5 5,3 9 5 N 1029,9 20
22.02.2020 00:00:00 10,6 5,6 11 6 N 1030,0 24
21.02.2020 23:00:00 11,8 4,5 8 4 NNO 1029,9 30
21.02.2020 22:00:00 12,9 4,3 4 2 WNW 1029,8 30
21.02.2020 21:00:00 12,5 5,9 9 5 W 1029,4 30
21.02.2020 20:00:00 13,2 6,0 15 8 WZW 1029,3 30
21.02.2020 19:00:00 13,7 6,5 18 10 W 1028,8 30
21.02.2020 18:00:00 15,1 7,1 26 14 WZW 1028,4 30
21.02.2020 17:00:00 16,0 7,5 26 14 WZW 1028,3 29
21.02.2020 16:00:00 16,7 7,9 26 14 WZW 1028,5 27
21.02.2020 15:00:00 16,6 8,6 28 15 WZW 1028,9 20
21.02.2020 14:00:00 16,0 8,5 24 13 ZW 1029,3 15
21.02.2020 13:00:00 16,7 6,8 21 11 ZW 1030,2 28
21.02.2020 12:00:00 14,9 9,0 15 8 ZW 1030,9 12
21.02.2020 11:00:00 14,2 6,8 2 1 NNW 1030,9 18
21.02.2020 10:00:00 10,7 5,2 15 8 N 1030,8 20
21.02.2020 09:00:00 8,1 4,5 18 10 N 1030,0 15
21.02.2020 08:00:00 6,9 4,0 13 7 N 1029,3 18
21.02.2020 07:00:00 7,0 4,3 18 10 N 1028,9 15
21.02.2020 06:00:00 7,3 4,6 18 10 N 1028,5 16
21.02.2020 05:00:00 7,6 5,1 18 10 N 1028,2 16
21.02.2020 04:00:00 7,6 5,1 16 9 N 1028,5 9
21.02.2020 03:00:00 7,9 5,7 16 9 N 1028,6 15
21.02.2020 02:00:00 8,7 6,8 13 7 N 1028,2 12
21.02.2020 01:00:00 9,3 7,7 15 8 N 1027,8 9
21.02.2020 00:00:00 9,7 8,3 9 5 N 1027,2 9
20.02.2020 23:00:00 10,3 8,6 11 6 N 1026,8 12
20.02.2020 22:00:00 11,1 8,8 4 2 NW 1026,3 20
20.02.2020 21:00:00 12,2 9,9 11 6 WZW 1026,1 16
20.02.2020 20:00:00 12,7 10,2 15 8 WZW 1025,9 22
20.02.2020 19:00:00 12,8 10,2 22 12 WZW 1025,1 21
20.02.2020 18:00:00 14,0 10,2 24 13 WZW 1024,5 26
20.02.2020 17:00:00 14,8 10,0 26 14 WZW 1024,3 30
20.02.2020 16:00:00 15,0 9,6 31 17 WZW 1024,3 25
20.02.2020 15:00:00 15,3 9,6 34 18 WZW 1024,3 26
20.02.2020 14:00:00 15,2 9,2 31 17 WZW 1024,4 20
20.02.2020 13:00:00 15,0 9,2 29 16 WZW 1025,2 2,9
20.02.2020 12:00:00 14,7 8,9 26 14 WZW 1026,0 23
20.02.2020 11:00:00 12,3 6,8 4 2 N 1026,5 19
20.02.2020 10:00:00 9,2 4,2 15 8 N 1026,5 16
20.02.2020 09:00:00 6,7 3,0 21 11 N 1026,3 18
20.02.2020 08:00:00 5,6 2,8 21 11 N 1026,2 21
20.02.2020 07:00:00 5,7 2,8 21 11 N 1026,1 20
20.02.2020 06:00:00 5,7 2,9 18 10 N 1026,3 21
20.02.2020 05:00:00 6,6 3,2 18 10 N 1026,5 21
20.02.2020 04:00:00 6,6 3,4 18 10 N 1026,9 20
20.02.2020 03:00:00 7,2 4,0 15 8 N 1027,4 20
20.02.2020 02:00:00 7,5 4,3 15 8 N 1027,8 20
20.02.2020 01:00:00 7,9 4,8 11 6 N 1028,3 25
20.02.2020 00:00:00 8,4 4,8 4 2 N 1028,7 19
19.02.2020 23:00:00 8,7 5,1 4 2 N 1029,2 22
19.02.2020 22:00:00 9,2 5,1 2 1 W 1029,1 30
19.02.2020 21:00:00 10,8 6,2 4 2 W 1029,3 30
19.02.2020 20:00:00 11,5 6,2 9 5 WZW 1029,6 30
19.02.2020 19:00:00 11,9 6,4 13 7 WZW 1029,4 35
19.02.2020 18:00:00 13,0 6,6 15 8 WZW 1029,0 27
19.02.2020 17:00:00 13,9 6,1 16 9 ZW 1029,3 30
19.02.2020 16:00:00 14,5 5,9 16 9 ZW 1029,7 35
19.02.2020 15:00:00 14,8 5,7 15 8 ZZW 1030,2 29
19.02.2020 14:00:00 16,2 3,0 5 3 ZZO 1031,1 30
19.02.2020 13:00:00 14,7 3,4 8 4 N 1031,9 25
19.02.2020 12:00:00 13,4 3,3 16 9 N 1033,0 20
19.02.2020 11:00:00 11,6 3,1 21 11 N 1032,8 30
19.02.2020 10:00:00 9,9 3,2 21 11 N 1032,5 55
19.02.2020 09:00:00 8,1 3,0 21 11 N 1032,0 30
19.02.2020 08:00:00 6,9 2,8 21 11 N 1030,7 29
19.02.2020 07:00:00 7,0 2,9 22 12 N 1030,3 30

tt = temperatuur
td = dauwpunt
ff = windsnelheid
dd = windrichting
ppp = luchtdruk
vv = zicht

Weerstations in de omgeving